Time,TemperatureF,DewpointF,PressureIn,WindDirection,WindDirectionDegrees,WindSpeedMPH,WindSpeedGustMPH,Humidity,HourlyPrecipIn,Conditions,Clouds,dailyrainin,SoftwareType,DateUTC
2013-05-15 00:03:00,67.0,55.0,-100.00,South,180,2.0,7.0,65,0.00,,,-99.99,,2013-05-15 04:03:00,
2013-05-15 00:12:00,67.0,55.0,-100.00,SSW,195,2.0,7.0,66,2.24,,,-99.99,,2013-05-15 04:12:00,
2013-05-15 00:24:00,68.0,56.0,-100.00,South,180,4.0,8.0,65,0.00,,,-99.99,,2013-05-15 04:24:00,
2013-05-15 00:33:00,69.0,56.0,-100.00,South,180,4.0,11.0,63,0.00,,,-99.99,,2013-05-15 04:33:00,
2013-05-15 00:42:00,68.0,56.0,-100.00,South,175,4.0,7.0,64,0.00,,,-99.99,,2013-05-15 04:42:00,
2013-05-15 00:52:00,68.0,56.0,-100.00,SSW,200,1.0,8.0,65,0.00,,,-99.99,,2013-05-15 04:52:00,
2013-05-15 01:02:00,68.0,56.0,-100.00,South,190,1.0,6.0,66,1.10,,,-99.99,,2013-05-15 05:02:00,
2013-05-15 01:12:00,67.0,56.0,-100.00,South,190,1.0,5.0,68,0.00,,,-99.99,,2013-05-15 05:12:00,
2013-05-15 01:22:00,67.0,56.0,-100.00,SSW,195,1.0,3.0,69,0.00,,,-99.99,,2013-05-15 05:22:00,
2013-05-15 01:32:00,67.0,56.0,-100.00,SSW,210,1.0,6.0,70,0.00,,,-99.99,,2013-05-15 05:32:00,
2013-05-15 01:42:00,67.0,56.0,-100.00,SSW,210,1.0,6.0,70,0.00,,,-99.99,,2013-05-15 05:42:00,
2013-05-15 01:52:00,68.0,57.0,-100.00,SSW,210,2.0,6.0,68,0.00,,,-99.99,,2013-05-15 05:52:00,
2013-05-15 02:02:00,68.0,57.0,-100.00,South,190,2.0,4.0,68,0.00,,,-99.99,,2013-05-15 06:02:00,
2013-05-15 02:11:00,68.0,57.0,-100.00,South,190,1.0,5.0,69,0.00,,,-99.99,,2013-05-15 06:11:00,
2013-05-15 02:22:00,68.0,58.0,-100.00,South,180,2.0,6.0,70,0.00,,,-99.99,,2013-05-15 06:22:00,
2013-05-15 02:32:00,67.0,58.0,-100.00,South,190,1.0,6.0,71,0.00,,,-99.99,,2013-05-15 06:32:00,
2013-05-15 02:42:00,68.0,58.0,-100.00,SSW,195,3.0,7.0,71,0.00,,,-99.99,,2013-05-15 06:42:00,
2013-05-15 02:52:00,68.0,58.0,-100.00,SSW,200,3.0,7.0,70,0.00,,,-99.99,,2013-05-15 06:52:00,
2013-05-15 03:01:00,68.0,58.0,-100.00,South,175,3.0,6.0,71,0.00,,,-99.99,,2013-05-15 07:01:00,
2013-05-15 03:11:00,68.0,58.0,-100.00,South,175,4.0,7.0,71,0.00,,,-99.99,,2013-05-15 07:11:00,
2013-05-15 03:22:00,67.0,58.0,-100.00,South,180,2.0,7.0,71,0.00,,,-99.99,,2013-05-15 07:22:00,
2013-05-15 03:32:00,67.0,58.0,-100.00,South,170,2.0,6.0,72,0.00,,,-99.99,,2013-05-15 07:32:00,
2013-05-15 03:41:00,67.0,58.0,-100.00,South,170,6.0,8.0,73,0.00,,,-99.99,,2013-05-15 07:41:00,
2013-05-15 03:52:00,67.0,59.0,-100.00,South,175,2.0,6.0,73,0.00,,,-99.99,,2013-05-15 07:52:00,
2013-05-15 04:02:00,67.0,59.0,-100.00,SSE,150,4.0,7.0,73,0.00,,,-99.99,,2013-05-15 08:02:00,
2013-05-15 04:12:00,68.0,59.0,-100.00,SSE,165,4.0,9.0,73,0.00,,,-99.99,,2013-05-15 08:12:00,
2013-05-15 04:21:00,68.0,59.0,-100.00,South,175,6.0,11.0,72,0.00,,,-99.99,,2013-05-15 08:21:00,
2013-05-15 04:32:00,68.0,59.0,-100.00,SSE,160,6.0,11.0,72,0.00,,,-99.99,,2013-05-15 08:32:00,
2013-05-15 04:42:00,68.0,59.0,-100.00,SSW,200,2.0,10.0,72,0.00,,,-99.99,,2013-05-15 08:42:00,
2013-05-15 04:53:00,68.0,59.0,-100.00,SSW,200,2.0,10.0,72,0.00,,,-99.99,,2013-05-15 08:53:00,
2013-05-15 05:01:00,68.0,59.0,-100.00,SSW,195,3.0,10.0,73,0.00,,,-99.99,,2013-05-15 09:01:00,
2013-05-15 05:11:00,69.0,59.0,-100.00,South,185,6.0,10.0,72,0.00,,,-99.99,,2013-05-15 09:11:00,
2013-05-15 05:21:00,68.0,60.0,-100.00,South,190,5.0,13.0,74,3.39,,,-99.99,,2013-05-15 09:21:00,
2013-05-15 05:33:00,68.0,60.0,-100.00,SSW,200,6.0,12.0,74,0.55,,,-99.99,,2013-05-15 09:33:00,
2013-05-15 05:42:00,69.0,60.0,-100.00,SSW,205,4.0,11.0,73,0.00,,,-99.99,,2013-05-15 09:42:00,
2013-05-15 05:53:00,69.0,60.0,-100.00,South,185,5.0,12.0,73,0.00,,,-99.99,,2013-05-15 09:53:00,
2013-05-15 06:02:00,69.0,60.0,-100.00,SSW,200,6.0,13.0,71,0.00,,,-99.99,,2013-05-15 10:02:00,
2013-05-15 06:13:00,70.0,59.0,-100.00,SSW,200,5.0,11.0,69,0.00,,,-99.99,,2013-05-15 10:13:00,
2013-05-15 06:22:00,69.0,59.0,-100.00,SW,215,6.0,12.0,68,0.00,,,-99.99,,2013-05-15 10:22:00,
2013-05-15 06:32:00,70.0,59.0,-100.00,South,190,5.0,15.0,67,0.00,,,-99.99,,2013-05-15 10:32:00,
2013-05-15 06:42:00,70.0,58.0,-100.00,SW,215,5.0,13.0,66,0.00,,,-99.99,,2013-05-15 10:42:00,
2013-05-15 06:52:00,70.0,58.0,-100.00,SSW,200,6.0,14.0,65,0.00,,,-99.99,,2013-05-15 10:52:00,
2013-05-15 07:12:00,70.0,58.0,-100.00,SSW,210,6.0,15.0,65,0.00,,,-99.99,,2013-05-15 11:12:00,
2013-05-15 07:18:00,71.0,58.0,-100.00,SSW,210,7.0,15.0,64,0.00,,,-99.99,,2013-05-15 11:18:00,
2013-05-15 07:27:00,71.0,58.0,-100.00,SSW,210,7.0,13.0,63,0.00,,,-99.99,,2013-05-15 11:27:00,
2013-05-15 07:38:00,71.0,58.0,-100.00,SSW,200,7.0,14.0,62,0.00,,,-99.99,,2013-05-15 11:38:00,
2013-05-15 07:47:00,72.0,58.0,-100.00,SW,220,7.0,19.0,61,0.00,,,-99.99,,2013-05-15 11:47:00,
2013-05-15 07:56:00,72.0,57.0,-100.00,SSW,200,11.0,19.0,59,0.00,,,-99.99,,2013-05-15 11:56:00,
2013-05-15 08:15:00,72.0,57.0,-100.00,SSW,200,9.0,24.0,58,0.00,,,-99.99,,2013-05-15 12:15:00,
2013-05-15 08:29:00,74.0,58.0,-100.00,SW,220,6.0,20.0,56,0.00,,,-99.99,,2013-05-15 12:29:00,
2013-05-15 08:36:00,74.0,57.0,-100.00,SW,215,12.0,20.0,56,0.00,,,-99.99,,2013-05-15 12:36:00,
2013-05-15 08:47:00,74.0,57.0,-100.00,SW,230,8.0,20.0,55,0.00,,,-99.99,,2013-05-15 12:47:00,
2013-05-15 08:54:00,72.0,57.0,-100.00,SW,220,12.0,21.0,59,6.77,,,-99.99,,2013-05-15 12:54:00,
2013-05-15 09:26:00,71.0,57.0,-100.00,WSW,240,7.0,16.0,60,0.00,,,-99.99,,2013-05-15 13:26:00,
2013-05-15 09:36:00,71.0,57.0,-100.00,SW,220,9.0,18.0,59,0.00,,,-99.99,,2013-05-15 13:36:00,
2013-05-15 09:46:00,71.0,57.0,-100.00,SW,230,6.0,15.0,60,0.00,,,-99.99,,2013-05-15 13:46:00,
2013-05-15 09:56:00,72.0,57.0,-100.00,SW,220,6.0,16.0,59,0.00,,,-99.99,,2013-05-15 13:56:00,
2013-05-15 10:07:00,73.0,58.0,-100.00,SW,215,5.0,18.0,58,0.00,,,-99.99,,2013-05-15 14:07:00,
2013-05-15 10:14:00,73.0,58.0,-100.00,SW,215,5.0,18.0,58,0.00,,,-99.99,,2013-05-15 14:14:00,
2013-05-15 10:38:00,76.0,59.0,-100.00,West,260,5.0,17.0,54,0.00,,,-99.99,,2013-05-15 14:38:00,
2013-05-15 10:46:00,77.0,58.0,-100.00,SW,215,9.0,21.0,52,0.00,,,-99.99,,2013-05-15 14:46:00,
2013-05-15 11:16:00,77.0,58.0,-100.00,WSW,255,6.0,21.0,51,0.00,,,-99.99,,2013-05-15 15:16:00,
2013-05-15 11:27:00,77.0,58.0,-100.00,West,275,9.0,23.0,51,0.00,,,-99.99,,2013-05-15 15:27:00,
2013-05-15 11:37:00,77.0,58.0,-100.00,West,270,7.0,17.0,50,0.00,,,-99.99,,2013-05-15 15:37:00,
2013-05-15 11:47:00,77.0,58.0,-100.00,West,270,7.0,17.0,50,0.00,,,-99.99,,2013-05-15 15:47:00,
2013-05-15 11:57:00,77.0,58.0,-100.00,West,270,7.0,17.0,50,0.00,,,-99.99,,2013-05-15 15:57:00,
2013-05-15 12:10:00,80.0,59.0,-100.00,SW,230,6.0,21.0,48,0.00,,,-99.99,,2013-05-15 16:10:00,
2013-05-15 12:28:00,81.0,59.0,-100.00,WSW,245,9.0,27.0,47,0.00,,,-99.99,,2013-05-15 16:28:00,
2013-05-15 12:38:00,80.0,58.0,-100.00,SSW,210,9.0,21.0,47,0.00,,,-99.99,,2013-05-15 16:38:00,
2013-05-15 12:47:00,82.0,59.0,-100.00,SW,235,6.0,25.0,46,0.00,,,-99.99,,2013-05-15 16:47:00,
2013-05-15 12:53:00,81.0,59.0,-100.00,SW,230,7.0,15.0,47,0.00,,,-99.99,,2013-05-15 16:53:00,
2013-05-15 13:11:00,80.0,58.0,-100.00,SW,225,9.0,21.0,47,0.00,,,-99.99,,2013-05-15 17:11:00,
2013-05-15 13:19:00,80.0,59.0,-100.00,SW,225,9.0,16.0,47,0.00,,,-99.99,,2013-05-15 17:19:00,
2013-05-15 13:27:00,83.0,60.0,-100.00,SW,220,9.0,21.0,45,0.00,,,-99.99,,2013-05-15 17:27:00,
2013-05-15 13:38:00,83.0,59.0,-100.00,WSW,240,9.0,19.0,45,0.00,,,-99.99,,2013-05-15 17:38:00,
2013-05-15 13:45:00,84.0,60.0,-100.00,SW,215,6.0,19.0,43,0.00,,,-99.99,,2013-05-15 17:45:00,
2013-05-15 13:56:00,85.0,59.0,-100.00,SW,225,10.0,20.0,42,0.00,,,-99.99,,2013-05-15 17:56:00,
2013-05-15 14:07:00,83.0,59.0,-100.00,WSW,255,7.0,19.0,44,0.00,,,-99.99,,2013-05-15 18:07:00,
2013-05-15 14:16:00,82.0,58.0,-100.00,SW,235,7.0,17.0,44,0.00,,,-99.99,,2013-05-15 18:16:00,
2013-05-15 14:26:00,82.0,59.0,-100.00,SW,230,7.0,15.0,45,0.00,,,-99.99,,2013-05-15 18:26:00,
2013-05-15 14:37:00,83.0,59.0,-100.00,West,270,6.0,19.0,44,0.00,,,-99.99,,2013-05-15 18:37:00,
2013-05-15 14:46:00,85.0,60.0,-100.00,SW,235,6.0,14.0,42,0.00,,,-99.99,,2013-05-15 18:46:00,
2013-05-15 14:54:00,83.0,59.0,-100.00,SW,235,6.0,21.0,44,0.00,,,-99.99,,2013-05-15 18:54:00,
2013-05-15 15:09:00,82.0,59.0,-100.00,SW,230,7.0,18.0,45,0.00,,,-99.99,,2013-05-15 19:09:00,
2013-05-15 15:15:00,82.0,59.0,-100.00,West,270,7.0,14.0,46,0.00,,,-99.99,,2013-05-15 19:15:00,
2013-05-15 15:30:00,82.0,59.0,-100.00,West,275,9.0,19.0,46,0.00,,,-99.99,,2013-05-15 19:30:00,
2013-05-15 15:45:00,82.0,55.0,-100.00,WNW,285,9.0,21.0,40,0.00,,,-99.99,,2013-05-15 19:45:00,
2013-05-15 15:54:00,82.0,55.0,-100.00,West,265,12.0,23.0,40,0.00,,,-99.99,,2013-05-15 19:54:00,
2013-05-15 16:08:00,82.0,53.0,-100.00,WNW,285,16.0,24.0,36,0.00,,,-99.99,,2013-05-15 20:08:00,
2013-05-15 16:18:00,83.0,53.0,-100.00,West,275,9.0,22.0,35,0.00,,,-99.99,,2013-05-15 20:18:00,
2013-05-15 16:46:00,82.0,52.0,-100.00,West,275,18.0,22.0,35,0.00,,,-99.99,,2013-05-15 20:46:00,
2013-05-15 17:09:00,82.0,53.0,-100.00,West,280,16.0,25.0,36,0.00,,,-99.99,,2013-05-15 21:09:00,
2013-05-15 17:28:00,83.0,52.0,-100.00,West,275,11.0,18.0,34,0.00,,,-99.99,,2013-05-15 21:28:00,
2013-05-15 17:41:00,83.0,51.0,-100.00,West,280,17.0,25.0,34,0.00,,,-99.99,,2013-05-15 21:41:00,
2013-05-15 17:56:00,82.0,52.0,-100.00,West,275,14.0,22.0,34,0.00,,,-99.99,,2013-05-15 21:56:00,
2013-05-15 18:11:00,83.0,51.0,-100.00,West,275,18.0,24.0,32,0.00,,,-99.99,,2013-05-15 22:11:00,
2013-05-15 18:18:00,83.0,50.0,-100.00,West,275,19.0,25.0,32,0.00,,,-99.99,,2013-05-15 22:18:00,
2013-05-15 18:29:00,82.0,50.0,-100.00,WNW,285,21.0,32.0,32,0.00,,,-99.99,,2013-05-15 22:29:00,
2013-05-15 18:40:00,82.0,50.0,-100.00,West,275,15.0,24.0,32,0.00,,,-99.99,,2013-05-15 22:40:00,
2013-05-15 18:48:00,81.0,51.0,-100.00,West,275,16.0,21.0,35,0.00,,,-99.99,,2013-05-15 22:48:00,
2013-05-15 18:54:00,82.0,51.0,-100.00,WNW,285,12.0,21.0,34,0.00,,,-99.99,,2013-05-15 22:54:00,
2013-05-15 19:28:00,81.0,51.0,-100.00,West,275,14.0,19.0,35,0.00,,,-99.99,,2013-05-15 23:28:00,
2013-05-15 19:39:00,80.0,52.0,-100.00,West,275,12.0,20.0,38,0.00,,,-99.99,,2013-05-15 23:39:00,
2013-05-15 19:49:00,80.0,52.0,-100.00,West,280,15.0,20.0,37,0.00,,,-99.99,,2013-05-15 23:49:00,
2013-05-15 19:55:00,80.0,51.0,-100.00,West,280,13.0,21.0,36,0.00,,,-99.99,,2013-05-15 23:55:00,
2013-05-15 20:07:00,79.0,51.0,-100.00,WNW,285,12.0,18.0,37,0.00,,,-99.99,,2013-05-16 00:07:00,
2013-05-15 20:17:00,79.0,51.0,-100.00,West,275,11.0,16.0,37,0.00,,,-99.99,,2013-05-16 00:17:00,
2013-05-15 20:49:00,76.0,51.0,-100.00,WNW,285,6.0,10.0,41,0.00,,,-99.99,,2013-05-16 00:49:00,
2013-05-15 21:07:00,73.0,54.0,-100.00,WNW,285,4.0,7.0,50,0.00,,,-99.99,,2013-05-16 01:07:00,
2013-05-15 21:17:00,74.0,53.0,-100.00,West,280,5.0,9.0,47,0.00,,,-99.99,,2013-05-16 01:17:00,
2013-05-15 21:48:00,71.0,52.0,-100.00,West,270,5.0,6.0,50,0.00,,,-99.99,,2013-05-16 01:48:00,
2013-05-15 21:56:00,70.0,52.0,-100.00,West,275,5.0,7.0,52,0.00,,,-99.99,,2013-05-16 01:56:00,
2013-05-15 22:08:00,71.0,54.0,-100.00,West,280,4.0,7.0,54,0.00,,,-99.99,,2013-05-16 02:08:00,
2013-05-15 22:16:00,70.0,53.0,-100.00,West,270,2.0,6.0,54,0.00,,,-99.99,,2013-05-16 02:16:00,
2013-05-15 22:28:00,70.0,53.0,-100.00,West,270,4.0,6.0,54,0.00,,,-99.99,,2013-05-16 02:28:00,
2013-05-15 22:38:00,69.0,51.0,-100.00,West,265,3.0,6.0,53,0.00,,,-99.99,,2013-05-16 02:38:00,
2013-05-15 22:46:00,69.0,51.0,-100.00,West,265,3.0,6.0,53,0.00,,,-99.99,,2013-05-16 02:46:00,
2013-05-15 22:54:00,69.0,51.0,-100.00,West,265,3.0,6.0,53,0.00,,,-99.99,,2013-05-16 02:54:00,
2013-05-15 23:07:00,68.0,52.0,-100.00,West,280,4.0,5.0,55,0.00,,,-99.99,,2013-05-16 03:07:00,
2013-05-15 23:16:00,69.0,56.0,-100.00,West,275,3.0,4.0,63,0.00,,,-99.99,,2013-05-16 03:16:00,
2013-05-15 23:38:00,67.0,53.0,-100.00,SW,220,0.0,3.0,58,0.00,,,-99.99,,2013-05-16 03:38:00,
2013-05-15 23:45:00,67.0,52.0,-100.00,WSW,255,0.0,4.0,58,0.00,,,-99.99,,2013-05-16 03:45:00,
2013-05-15 23:55:00,67.0,53.0,-100.00,SW,215,0.0,1.0,61,0.00,,,-99.99,,2013-05-16 03:55:00,